[[{"header":{"parameterUnit":"m.s-1","parameterCategory":1,"la1":30.2991,"la2":30.254,"lo1":-89.0895,"lo2":-89.0444,"dy":0.0017,"dx":0.0017,"nx":28,"ny":28,"refTime":"2025-12-16T09:00:00:Z","depth":0,"parameterNumber":2,"parameterNumberName":"U-component_of_WINDS"},"data":[0,0,0,0,0,0,0,0,0,0,0,0,0,0,0,0,0,0,0,0,0,0,0,0,0,0,0,0,0,0,0,0,0,0,0,0,0,0,0,0,0,0,0,0,0,0,0,0,0,0,0,0,0,0,0,0,0,0,-6.7889,-6.789,0,-6.7973,-6.7974,-6.7975,-6.7884,-6.788,-6.7877,-6.7873,-6.7958,-6.7963,-6.7969,0,0,0,0,0,0,0,0,0,0,0,0,0,-6.7648,-6.7653,-6.7889,-6.789,-6.7891,-6.7973,-6.7974,-6.7975,-6.7884,-6.788,-6.7876,-6.7872,-6.7956,-6.7963,-6.7969,0,0,0,0,0,0,0,0,0,0,0,0,0,-6.7745,-6.7655,-6.7888,-6.7855,-6.7853,-6.7973,-6.7974,-6.7976,-6.7885,-6.788,-6.7875,-6.787,-6.7954,-6.7962,-6.797,-6.8126,0,0,-6.7996,-6.7999,0,0,0,0,0,0,0,0,-6.7739,-6.7754,-6.7859,-6.7858,-6.7856,-6.7913,-6.792,-6.8026,-6.7886,-6.7873,-6.7873,-6.7867,-6.7947,-6.7956,-6.7983,-6.813,-6.8134,-6.7996,-6.8001,-6.8005,-6.8007,0,0,0,0,0,0,0,-6.7733,-6.7749,-6.7922,-6.7861,-6.7859,-6.7836,-6.7844,-6.794,-6.7938,-6.7874,-6.7867,-6.7879,-6.7945,-6.7975,-6.7984,-6.8135,-6.7996,-6.8003,-6.8009,-6.8012,-6.8417,-6.8422,0,0,0,0,0,0,-6.773,-6.7745,-6.7919,-6.7924,-6.7783,-6.7845,-6.7854,-6.79,-6.7937,-6.7938,-6.7883,-6.7874,-6.7964,-6.7975,-6.7987,-6.8173,-6.8005,-6.8013,-6.8017,-6.8411,-6.8418,-6.8424,0,0,0,0,0,0,-6.7725,-6.7746,-6.7916,-6.7833,-6.7853,-6.7854,-6.7907,-6.7904,-6.7934,-6.7944,-6.7943,-6.7914,-6.796,-6.7975,-6.8093,-6.8174,-6.8016,-6.8024,-6.8404,-6.8413,-6.8421,-6.8546,0,0,0,0,0,0,-6.7719,-6.7745,-6.7804,-6.7835,-6.7858,-6.8021,-6.7912,-6.7909,-6.7949,-6.7938,-6.7973,-6.7974,-6.7957,-6.8081,-6.8101,-6.8183,-6.803,-6.8397,-6.8408,-6.8419,-6.8534,-6.8557,-6.8577,0,0,0,0,0,-6.771,-6.7835,-6.7808,-6.7829,-6.7931,-6.8026,-6.8038,-6.8017,-6.7956,-6.8015,-6.8022,-6.7973,-6.8163,-6.8094,-6.8116,-6.8201,-6.8392,-6.8405,-6.8418,-6.8524,-6.8553,-6.8577,0,0,0,0,0,0,-6.7812,-6.7838,-6.7808,-6.7947,-6.7985,-6.801,-6.8084,-6.8048,-6.8103,-6.8091,-6.8061,-6.807,-6.8196,-6.821,-6.8133,-6.8355,-6.8267,-6.8285,-6.8341,-6.8368,-6.8389,-6.8382,-6.8037,0,0,0,0,0,-6.7851,-6.7926,-6.7944,-6.8065,-6.8086,-6.8082,-6.8122,-6.8103,-6.8141,-6.8156,-6.8172,-6.821,-6.8279,-6.8324,-6.8388,-6.8537,-6.8543,-6.8606,-6.8628,-6.8646,-6.8661,-6.8742,-6.8771,-6.8467,-6.8467,-6.8467,0,0,-6.7931,-6.7955,-6.8004,-6.8086,-6.8113,-6.8191,-6.8096,-6.8182,-6.824,-6.8169,-6.8281,-6.8295,-6.8336,-6.847,-6.853,-6.8486,-6.8747,-6.8662,-6.8676,-6.8682,-6.8759,-6.8787,-6.8813,-6.8476,-6.8474,-6.8473,0,0,-6.8118,-6.8143,-6.8247,-6.8277,-6.832,-6.8318,-6.8343,-6.8375,-6.8381,-6.8494,-6.8443,-6.8511,-6.8629,-6.8661,-6.8693,-6.8896,-6.8853,-6.8917,-6.903,-6.9109,-6.9133,-6.9154,-6.9227,-6.9253,-6.8933,-6.8933,-6.8934,0,-6.8212,-6.8328,-6.8304,-6.8395,-6.8433,-6.8375,-6.848,-6.851,-6.8572,-6.86,-6.855,-6.8699,-6.8722,-6.8864,-6.8914,-6.8942,-6.897,-6.8912,-6.9132,-6.9153,-6.9172,-6.9241,-6.9268,-6.8941,-6.894,-6.8939,-6.8939,0,-6.8442,-6.8523,-6.8602,-6.8664,-6.8711,-6.8809,-6.8801,-6.8851,-6.8829,-6.8832,-6.8949,-6.8976,-6.9044,-6.9077,-6.9055,-6.9217,-6.9188,-6.9136,-6.9046,-6.9209,-6.9273,-6.9299,-6.8952,-6.8949,-6.8947,-6.8945,0,0,-6.8691,-6.8743,-6.8772,-6.88,-6.8845,-6.8908,-6.9004,-6.9072,-6.9116,-6.9162,-6.9241,-6.9345,-6.9297,-6.9334,-6.9316,-6.9386,-6.9546,-6.9325,-6.9325,-6.9365,-6.9726,-6.9765,-6.9796,-6.9518,-6.9523,-6.9527,-6.9723,0,-6.8879,-6.9045,-6.9028,-6.9186,-6.9262,-6.921,-6.9293,-6.933,-6.9337,-6.9402,-6.9408,-6.9482,-6.9414,-6.9436,-6.9503,-6.9512,-6.9617,-6.9498,-6.9592,-6.9595,-6.9582,-6.9829,-6.987,-7.0053,-6.9748,-6.9752,-6.9755,0,-6.9118,-6.9174,-6.9341,-6.9376,-6.9407,-6.9483,-6.9545,-6.9608,-6.965,-6.965,-6.9693,-6.9663,-6.976,-6.967,-6.9804,-6.9723,-6.9761,-6.9771,-6.9778,-6.9785,-6.9684,-6.9843,-7.0111,-7.0138,-6.9794,-6.9791,-6.9788,0,-6.9284,-6.9401,-6.9516,-6.9542,-6.9587,-6.9641,-6.9662,-6.9699,-6.9742,-6.9797,-6.9825,-6.989,-6.9926,-6.9977,-6.9967,-6.9902,-7.0104,-7.0012,-7.0106,-7.0107,-7.0149,-7.0147,-7.0427,-7.0176,-7.0175,-7.0175,-7.0174,0,-6.9495,-6.9599,-6.9592,-6.9662,-6.9777,-6.9758,-6.9873,-6.9887,-6.9921,-6.9994,-6.9952,-7.0022,-7.0004,-7.0073,-7.0065,-7.0178,-7.0194,-7.0196,-7.0193,-7.02,-7.02,-7.0223,-7.021,-7.0182,-7.018,-7.0179,-7.0178,0,-6.9699,-6.9698,-6.982,-6.9854,-6.9864,-6.9948,-6.9976,-7.0043,-7.0048,-7.0141,-7.0161,-7.0168,-7.0247,-7.0242,-7.0331,-7.0326,-7.0465,-7.0447,-7.0451,-7.0447,-7.0541,-7.0532,-7.0846,-7.0886,-7.0609,-7.0612,-7.0614,0,-6.9832,-6.9911,-6.9954,-7.0001,-7.0026,-7.0101,-7.0145,-7.013,-7.0178,-7.0234,-7.0294,-7.037,-7.043,-7.0559,-7.0571,-7.064,-7.0623,-7.0728,-7.0633,-7.0638,-7.0625,-7.062,-7.0628,-7.0747,-7.075,-7.0752,-7.0754,0,-7.007,-7.0067,-7.0133,-7.02,-7.0255,-7.0306,-7.0353,-7.0394,-7.0384,-7.044,-7.0522,-7.0568,-7.0661,-7.0737,-7.0803,-7.0824,-7.0789,-7.0785,-7.081,-7.0817,-7.0817,-7.0819,-7.0502,-7.0777,-7.0775,-7.0773,-7.0772,-7.0771,-7.0243,-7.0311,-7.0353,-7.0429,-7.0463,-7.0509,-7.0574,-7.0588,-7.0656,-7.073,-7.0717,-7.0809,-7.0851,-7.0936,-7.0964,-7.1036,-7.0998,-7.1035,-7.1044,-7.1053,-7.1064,-7.0807,-7.1048,-7.1047,-7.1046,-7.1046,-7.1045,0,-7.0479,-7.0504,-7.0574,-7.0642,-7.0702,-7.0665,-7.0716,-7.0769,-7.085,-7.0892,-7.0953,-7.1047,-7.1122,-7.1142,-7.1213,-7.1267,-7.1253,-7.1286,-7.1282,-7.1288,-7.1093,-7.1064,-7.1297,-7.1297,-7.1297,-7.1297,-7.1297,-7.1297,-7.0608,-7.0723,-7.0725,-7.0857,-7.0881,-7.0971,-7.1004,-7.1046,-7.108,-7.1188,-7.125,-7.1263,-7.1297,-7.1371,-7.1438,-7.1442,-7.147,-7.1511,-7.1509,-7.1326,-7.1301,-7.1277,-7.125,-7.1517,-7.1518,-7.1697,-7.1699,-7.17]},{"header":{"parameterUnit":"m.s-1","parameterCategory":1,"la1":30.2991,"la2":30.254,"lo1":-89.0895,"lo2":-89.0444,"dy":0.0017,"dx":0.0017,"nx":28,"ny":28,"refTime":"2025-12-16T09:00:00:Z","depth":0,"parameterNumber":3,"parameterNumberName":"V-component_of_WINDS"},"data":[0,0,0,0,0,0,0,0,0,0,0,0,0,0,0,0,0,0,0,0,0,0,0,0,0,0,0,0,0,0,0,0,0,0,0,0,0,0,0,0,0,0,0,0,0,0,0,0,0,0,0,0,0,0,0,0,0,0,3.448,3.448,0,3.4527,3.4527,3.4528,3.4521,3.452,3.452,3.4519,3.4563,3.4565,3.4567,0,0,0,0,0,0,0,0,0,0,0,0,0,3.4382,3.4383,3.448,3.448,3.4481,3.4527,3.4527,3.4528,3.4521,3.452,3.4519,3.4519,3.4562,3.4565,3.4567,0,0,0,0,0,0,0,0,0,0,0,0,0,3.4426,3.4384,3.4479,3.4483,3.4484,3.4527,3.4527,3.4528,3.4522,3.452,3.4519,3.4518,3.4562,3.4564,3.4567,3.4608,0,0,3.4576,3.4577,0,0,0,0,0,0,0,0,3.4423,3.4429,3.4482,3.4483,3.4484,3.4517,3.4509,3.4555,3.4522,3.4507,3.4519,3.4518,3.4548,3.4552,3.4563,3.461,3.4612,3.4576,3.4578,3.4579,3.458,0,0,0,0,0,0,0,3.442,3.4427,3.4498,3.4483,3.4484,3.4482,3.4487,3.4518,3.4533,3.4508,3.4508,3.4514,3.4549,3.4561,3.4564,3.4613,3.4576,3.4579,3.458,3.4581,3.4697,3.4698,0,0,0,0,0,0,3.4417,3.4425,3.4497,3.45,3.445,3.4484,3.449,3.4507,3.4533,3.4536,3.4515,3.4513,3.4556,3.4561,3.4566,3.4616,3.4579,3.4582,3.4583,3.4696,3.4697,3.4699,0,0,0,0,0,0,3.4415,3.4423,3.4495,3.4462,3.4471,3.4487,3.4507,3.4509,3.4521,3.4538,3.4541,3.4524,3.4556,3.4562,3.4598,3.4617,3.4583,3.4586,3.4694,3.4696,3.4698,3.4716,0,0,0,0,0,0,3.4412,3.4423,3.4438,3.4463,3.4473,3.4527,3.4508,3.4511,3.4527,3.4525,3.4548,3.455,3.4555,3.4594,3.4601,3.4621,3.4588,3.4692,3.4695,3.4698,3.4714,3.4719,3.4723,0,0,0,0,0,3.4408,3.444,3.4439,3.4448,3.4493,3.4528,3.4534,3.454,3.4528,3.4544,3.4556,3.455,3.4615,3.4598,3.4606,3.4626,3.4691,3.4694,3.4697,3.4712,3.4718,3.4723,0,0,0,0,0,0,3.4415,3.4443,3.4442,3.4483,3.4504,3.4527,3.4546,3.4545,3.4568,3.4566,3.4571,3.4577,3.4614,3.4624,3.4605,3.4668,3.4651,3.4656,3.466,3.4665,3.467,3.4665,3.459,0,0,0,0,0,3.4422,3.4448,3.4471,3.4505,3.4516,3.453,3.4545,3.4549,3.4569,3.4577,3.4591,3.461,3.4635,3.4651,3.4675,3.4717,3.4721,3.4735,3.4739,3.4743,3.4746,3.477,3.4776,3.4709,3.4709,3.4709,0,0,3.4434,3.4453,3.4469,3.4507,3.4523,3.455,3.4537,3.4565,3.4585,3.4581,3.4616,3.4628,3.465,3.4689,3.4707,3.4699,3.4766,3.4747,3.4749,3.4751,3.4773,3.478,3.4785,3.4711,3.4711,3.471,0,0,3.4471,3.4489,3.4519,3.4537,3.4563,3.4573,3.458,3.4605,3.4613,3.4649,3.4647,3.4671,3.4714,3.473,3.4744,3.4792,3.4787,3.4799,3.4821,3.4844,3.4849,3.4854,3.487,3.4876,3.4803,3.4803,3.4803,0,3.4483,3.4525,3.4535,3.4565,3.4581,3.4582,3.4613,3.4629,3.4661,3.4672,3.4663,3.4719,3.4733,3.4777,3.4789,3.4801,3.4809,3.4795,3.4848,3.4853,3.4857,3.4873,3.4879,3.4804,3.4804,3.4804,3.4804,0,3.4539,3.4568,3.459,3.4623,3.4642,3.4672,3.4686,3.4705,3.4708,3.4719,3.4757,3.4776,3.4804,3.4815,3.4817,3.486,3.4854,3.4847,3.4829,3.4865,3.4879,3.4886,3.4806,3.4806,3.4805,3.4805,0,0,3.4577,3.4618,3.4626,3.4642,3.4672,3.4695,3.4726,3.4756,3.4771,3.4794,3.482,3.4858,3.4853,3.4869,3.4873,3.4894,3.4931,3.4884,3.4885,3.4891,3.4978,3.4982,3.4989,3.4929,3.493,3.4931,3.4976,0,3.4616,3.4672,3.4684,3.4732,3.4759,3.4762,3.479,3.4811,3.4823,3.4848,3.486,3.4887,3.4878,3.4888,3.4909,3.4922,3.4948,3.4919,3.4952,3.4953,3.4944,3.4997,3.5001,3.5042,3.4982,3.4983,3.4984,0,3.4668,3.4695,3.4747,3.4776,3.4788,3.4812,3.4842,3.4866,3.4891,3.4898,3.4918,3.4921,3.4953,3.4937,3.4981,3.4961,3.4976,3.4985,3.4987,3.4988,3.4969,3.4998,3.5055,3.5061,3.4993,3.4993,3.4992,0,3.469,3.4739,3.4777,3.479,3.4826,3.4843,3.4858,3.4882,3.4901,3.4926,3.4938,3.4967,3.4982,3.5004,3.5015,3.5002,3.5059,3.5043,3.5065,3.5064,3.5074,3.5073,3.5132,3.5087,3.5087,3.5086,3.5086,0,3.4731,3.4762,3.4787,3.481,3.4846,3.486,3.4894,3.4909,3.4931,3.4957,3.4962,3.4985,3.4999,3.5025,3.5034,3.5069,3.5076,3.5083,3.5084,3.5081,3.508,3.5089,3.5085,3.5088,3.5088,3.5087,3.5087,0,3.4759,3.4778,3.4819,3.4851,3.486,3.4885,3.4911,3.4934,3.4948,3.498,3.4988,3.5009,3.504,3.5054,3.5092,3.5098,3.5138,3.5138,3.513,3.513,3.515,3.5148,3.5216,3.5225,3.5175,3.5175,3.5176,0,3.4783,3.4808,3.4844,3.4863,3.4879,3.4908,3.4928,3.4944,3.4964,3.4996,3.5014,3.5046,3.5072,3.5121,3.5139,3.5168,3.5168,3.5191,3.5172,3.5169,3.5167,3.5165,3.5167,3.5193,3.5193,3.5193,3.5194,0,3.4824,3.4833,3.4862,3.4895,3.4919,3.4945,3.497,3.4985,3.5005,3.5027,3.506,3.508,3.5121,3.5152,3.5183,3.5198,3.5199,3.52,3.5206,3.5202,3.5196,3.5199,3.5137,3.5198,3.5197,3.5197,3.5197,3.5197,3.485,3.4873,3.4902,3.4935,3.4957,3.4981,3.5005,3.5023,3.5051,3.5086,3.5094,3.5129,3.5156,3.5198,3.5214,3.5241,3.5236,3.5245,3.5247,3.5249,3.525,3.5194,3.5247,3.5247,3.5247,3.5247,3.5247,0,3.489,3.491,3.4941,3.4978,3.5004,3.5007,3.5036,3.5056,3.5088,3.5114,3.514,3.5179,3.521,3.5232,3.5264,3.5281,3.5283,3.5289,3.5286,3.529,3.5253,3.5244,3.5287,3.5287,3.5287,3.5287,3.5287,3.5287,3.4914,3.4952,3.4966,3.5016,3.5035,3.5071,3.5088,3.5111,3.5132,3.5175,3.5202,3.5218,3.5242,3.5276,3.5305,3.5311,3.5321,3.5327,3.5332,3.5297,3.5292,3.5288,3.528,3.533,3.533,3.5367,3.5367,3.5368]}]]